Weather in Belomorye

Russia / Arkhangel'skaya Oblast'     64°17′39″N   40°53′31″E
temp.,
°C
wind,
m/s
gust,
m/s
humid.,
%
clouds,
%
prec.,
mm/h
press.,
hPa
HPBL,
m
27 november, sat
sat2700:00−8nnw1196100 0.1 99468
03:00−10wnw119895 0.4 99627
06:00−10w259791 0.1 998127
09:00−12w119983 0.1 100216
12:00−11wnw149870 0.1 100699
15:00−15nw119858 0.1 10089
18:00−15wsw1198100 0.0 10109
21:00−15e119970 0.1 10119
28 november, sun
sun2800:00−15e1199100 0.0 101235
03:00−16ene1498100 0.0 101161
06:00−15ne2597100 0.0 1010124
09:00−15nne2796100 0.0 1009184
12:00−14nne3894100 0.0 1008249
15:00−15nne3895100 0.0 1007246
18:00−14n3894100 0.0 1007286
21:00−14n3894100 0.0 1007281
29 november, mon
mon2900:00−14nnw3795100 0.0 1007224
03:00−14nnw2795100 0.0 1009193
06:00−15nw2696100 0.0 1010111
09:00−15nnw2694100 0.0 1012137
12:00−15n2491100 0.0 1014111
15:00−17n22966 0.0 101535
18:00−19e119783 0.0 101510
21:00−18e269344 0.0 101496
30 november, tue
tue3000:00−16e21091100 0.0 1013213
03:00−14ene4148295 0.0 1009404
06:00−13ene41577100 0.0 1005493
09:00−13ene51685100 0.0 1001555
12:00−11ene51685100 0.0 996619
15:00−11ene61790100 0.2 990675
18:00−9ene61686100 0.1 986748
21:00−9ene51493100 0.9 982758
1 december, wed
wed100:00−8ne51393100 0.8 979747
03:00−8ne41291100 1.1 977645
06:00−9ne31094100 0.4 977519
09:00−8nne2795100 0.8 978410
12:00−7n1396100 0.8 979203
15:00−7sw119794 1.6 98041
18:00−9s2497100 0.3 983117
21:00−9se2496100 0.6 984177